FENGYUN 1C DEB, 37081

Orbit data source: Space-Track

FENGYUN 1C DEB, 37081 is space debris in SSO originally from a launch on Mon, 10 May 1999 UTC launched from the Taiyaun Space Center, China (TSC). Fengyun 1C debris stems from the Chinese weather satellite Fengyun-1C, which was intentionally destroyed by a Chinese anti-satellite missile in 2007. This event dramatically increased the amount of space debris, with thousands of trackable fragments posing hazards to satellites and human spaceflight. The Fengyun 1C debris cloud has become a focal point in discussions about space sustainability and the need for international regulations to prevent the creation of new debris.

Loading next visibility...
Identifier
37081, 1999-025EFR
Orbit
SSO
Country
Flag of CNCN / PRC
Related business
Manufacturer
Unknown
Mission
Spacecraft
Bus & Motor
Unknown
Mass
Unknown
Launch date (UTC)
1999-05-10 (27 years ago)
Launch vehicle
Unknown
Launch site
Taiyaun Space Center, China (TSC)
Object type
Payload
Rocket body
Debris
Shape & HBR
Unknown shape, 0.1 m
Radar Cross Section
Small (<0.1 m²)

Expand to show TLE details & history
Last TLE update: 22 hours ago

TLE from 22 hours ago
0 FENGYUN 1C DEB
1 37081U 99025EFR 26255.21050062  .00008676  00000-0  28670-2 0  9992
2 37081  98.6802  47.4343 0246201 281.4788  75.8837 14.22464134624520
Epoch: 2026-09-12T05:03Z
TLE epoch observation values (Epoch: 2026-09-12T05:03:07.253Z)
Latitude
-0.00011°
Longitude
-19.56867°
Altitude
780.878 km
Speed
7.484 km/s
True Right ascension
03h 09m 44s
True Declination
0° 00' 00"
Sunlit
Object was in full shadow at epoch
Visualization orbit readout
Latitude
Unknown
Longitude
Unknown
Altitude
Unknown
Speed
Unknown
Apparent Right ascension
Unknown
Apparent Declination
Unknown
Sunlit
N/A
Visualization observer readout
Local Sidereal Time
19:49:51
Azimuth
Unknown
Elevation
Unknown
Doppler factor
Unknown
Orbital elements
Apogee altitude
991.258 km
Perigee altitude
637.107 km
Semi-major axis
7,192.32 km
Eccentricity
0.02462
Inclination
98.6802°
RAAN
47.4343°
Arg. of periapsis
281.4788°
True anomaly
78.63938°
Mean anomaly
75.8837°
Eccentric anomaly
77.2596°
Mean motion
3.55828 °/min
Orbital period
101.17 mins
BSTAR
0.002867
Loading maneuver chart data...
Computing Atmospheric mass density...

Documentation

Showing up to 5 results
|